FW4237 Weather Reports


time (UTC)temp
C
wind
direction
speed
KPH
gust
KPH
rain 1hr
cm
rain 24hr
cm
rain mn
cm
humidity
%
barometer
mb
20260502160522 12 255 8.0 11.3 0.00 0.00 0.00 49 1013.6
20260502151414 11 276 8.0 9.7 0.00 0.00 0.00 51 1013.6
20260502150414 12 276 4.8 8.0 0.00 0.00 0.00 50 1013.6
20260502130352 10 313 6.4 8.0 0.00 0.00 0.00 52 1013.6
20260502123352 10 351 6.4 8.0 0.00 0.00 0.00 53 1013.2
20260502122351 10 272 1.6 1.6 0.00 0.00 0.00 58 1013.2
20260502121347 10 296 1.6 1.6 0.00 0.00 0.00 54 1013.2
20260502120346 9 293 1.6 1.6 0.00 0.00 0.00 59 1012.8
20260502115341 10 260 4.8 4.8 0.00 0.00 0.00 59 1012.8
20260502114340 10 316 3.2 3.2 0.00 0.00 0.00 57 1012.4
20260502113340 10 285 4.8 4.8 0.00 0.00 0.00 58 1012.4
20260502112335 10 284 4.8 4.8 0.00 0.00 0.00 58 1012.1
20260502111331 10 343 1.6 3.2 0.00 0.00 0.00 57 1012.1
20260502110326 10 283 1.6 1.6 0.00 0.00 0.00 57 1012.4
20260502105325 10 276 3.2 3.2 0.00 0.00 0.00 56 1012.4
20260502104320 10 253 3.2 3.2 0.00 0.00 0.00 57 1012.4
20260502103315 10 306 1.6 1.6 0.00 0.00 0.00 57 1012.4
20260502102314 10 308 3.2 3.2 0.00 0.00 0.00 58 1012.4
20260502101310 10 283 1.6 1.6 0.00 0.00 0.00 58 1012.4
20260502100307 10 283 1.6 1.6 0.00 0.00 0.00 59 1012.1
20260502091252 11 318 24.1 29.0 0.00 0.00 0.00 52 1011.8
20260502090252 11 302 11.3 12.9 0.00 0.00 0.00 56 1011.8
20260502071222 11 311 24.1 32.2 0.00 0.00 0.00 63 1011.1
20260502070217 11 269 11.3 16.1 0.00 0.00 0.00 64 1011.1
20260502065213 11 286 12.9 14.5 0.00 0.00 0.00 63 1011.4
20260502064214 12 266 8.0 11.3 0.00 0.00 0.00 63 1011.4
20260502063209 12 304 4.8 8.0 0.00 0.00 0.00 62 1011.8
20260502062209 12 271 11.3 16.1 0.00 0.00 0.00 61 1011.8
20260502061204 12 329 14.5 17.7 0.00 0.00 0.00 62 1011.4
20260502060202 12 300 6.4 9.7 0.00 0.00 0.00 62 1011.8
20260502055158 12 322 14.5 17.7 0.00 0.00 0.00 61 1011.8
20260502054154 12 311 11.3 12.9 0.00 0.00 0.00 60 1011.4
20260502053154 12 295 14.5 17.7 0.00 0.00 0.00 59 1011.8
20260502052150 12 311 9.7 12.9 0.00 0.00 0.00 62 1011.8
20260502051146 12 266 16.1 20.9 0.00 0.00 0.00 60 1011.8
20260502050144 13 267 20.9 29.0 0.00 0.00 0.00 60 1011.8
20260502045139 13 303 17.7 22.5 0.00 0.00 0.00 61 1011.8
20260502044137 13 332 14.5 17.7 0.00 0.00 0.00 61 1011.8
20260502043132 13 283 24.1 29.0 0.00 0.00 0.00 62 1011.8
20260502042129 13 303 16.1 24.1 0.00 0.00 0.00 63 1011.8
20260502041129 13 292 16.1 22.5 0.00 0.00 0.00 63 1011.8
20260502040129 13 323 12.9 16.1 0.00 0.00 0.00 64 1011.8
20260502035128 13 317 19.3 24.1 0.00 0.00 0.00 63 1011.8
20260502034124 14 292 9.7 11.3 0.00 0.00 0.00 63 1011.8
20260502033119 13 318 4.8 9.7 0.00 0.00 0.00 65 1011.8
20260502032117 12 299 6.4 11.3 0.00 0.00 0.00 73 1011.8
20260502031113 11 316 3.2 3.2 0.00 0.00 0.00 87 1011.8
20260502030109 11 316 1.6 3.2 0.00 0.00 0.00 86 1011.8
20260502025104 10 316 0.0 0.0 0.00 0.00 0.00 85 1011.8
20260502024059 10 316 0.0 0.0 0.00 0.00 0.00 85 1011.4
20260502023100 11 316 1.6 1.6 0.00 0.00 0.00 85 1011.4
20260502022100 11 316 0.0 0.0 0.00 0.00 0.00 85 1011.1
20260502021059 11 316 0.0 0.0 0.00 0.00 0.00 83 1010.8
20260502020059 11 317 3.2 3.2 0.00 0.00 0.00 81 1011.1
20260502015059 11 316 0.0 0.0 0.00 0.00 0.00 81 1011.1
20260502014059 11 316 0.0 0.0 0.00 0.00 0.00 81 1010.8
20260502013057 11 316 3.2 3.2 0.00 0.00 0.00 79 1010.8
20260502012052 11 316 0.0 0.0 0.00 0.00 0.00 78 1010.8
20260502011051 12 316 0.0 0.0 0.00 0.00 0.00 78 1010.8
20260502010050 12 316 0.0 0.0 0.00 0.00 0.00 77 1010.8
20260502005046 12 316 0.0 1.6 0.00 0.00 0.00 76 1010.1
20260502004044 12 316 3.2 3.2 0.00 0.00 0.00 75 1010.1
20260502003039 13 316 1.6 1.6 0.00 0.00 0.00 71 1010.1
20260502002038 15 312 3.2 3.2 0.00 0.00 0.00 68 1010.1
20260502001033 15 310 0.0 0.0 0.00 0.00 0.00 67 1009.6
20260502000028 16 308 0.0 1.6 0.00 0.00 0.00 60 1009.6
20260501235025 16 305 1.6 1.6 0.00 0.00 0.00 57 1009.6
20260501234025 16 284 0.0 1.6 0.00 0.00 0.00 53 1009.6
20260501233020 17 294 1.6 3.2 0.00 0.00 0.00 53 1009.3
20260501232019 17 297 0.0 0.0 0.00 0.00 0.00 54 1009.6
20260501231015 17 308 3.2 3.2 0.00 0.00 0.00 51 1009.3
20260501230011 17 309 0.0 0.0 0.00 0.00 0.00 55 1009.3
20260501225010 17 277 0.0 0.0 0.00 0.00 0.00 57 1009.3
20260501224010 17 278 0.0 1.6 0.00 0.00 0.00 53 1009.3
20260501223009 17 282 0.0 0.0 0.00 0.00 0.00 51 1009.3
20260501222008 18 265 1.6 3.2 0.00 0.00 0.00 48 1009.3
20260501221003 19 79 3.2 4.8 0.00 0.00 0.00 47 1009.6
20260501220002 18 269 3.2 3.2 0.00 0.00 0.00 46 1009.3
20260501215000 18 312 4.8 4.8 0.00 0.00 0.00 47 1009.3
20260501213958 19 262 3.2 3.2 0.00 0.00 0.00 46 1009.6
20260501212955 18 274 3.2 3.2 0.00 0.00 0.00 45 1009.6
20260501211955 20 276 0.0 1.6 0.00 0.00 0.00 46 1009.6
20260501210950 19 30 4.8 4.8 0.00 0.00 0.00 45 1009.6
20260501205949 19 254 6.4 8.0 0.00 0.00 0.00 44 1010.1
20260501204949 19 288 1.6 3.2 0.00 0.00 0.00 47 1010.4
20260501203947 20 256 4.8 4.8 0.00 0.00 0.00 44 1010.1
20260501202947 19 152 4.8 12.9 0.00 0.00 0.00 45 1010.4
20260501201946 18 267 1.6 3.2 0.00 0.00 0.00 45 1010.4
20260501200946 18 143 3.2 3.2 0.00 0.00 0.00 48 1011.1
20260501195946 19 265 4.8 4.8 0.00 0.00 0.00 47 1010.8
20260501194945 18 283 1.6 1.6 0.00 0.00 0.00 50 1011.1
20260501193942 18 289 4.8 9.7 0.00 0.00 0.00 45 1011.4
20260501192938 18 281 4.8 8.0 0.00 0.00 0.00 47 1011.4
20260501191938 17 318 3.2 3.2 0.00 0.00 0.00 46 1012.1
20260501190938 18 352 4.8 4.8 0.00 0.00 0.00 46 1011.8
20260501185934 17 292 1.6 1.6 0.00 0.00 0.00 49 1011.8
20260501184933 17 229 4.8 4.8 0.00 0.00 0.00 45 1012.1
20260501183930 17 265 4.8 12.9 0.00 0.00 0.00 52 1012.1
20260501182929 17 273 4.8 4.8 0.00 0.00 0.00 47 1012.4
20260501181929 17 257 4.8 8.0 0.00 0.00 0.00 48 1012.8
20260501180929 16 189 4.8 8.0 0.00 0.00 0.00 47 1012.8
20260501175928 16 73 9.7 11.3 0.00 0.00 0.00 48 1012.8
20260501174928 16 317 3.2 3.2 0.00 0.00 0.00 51 1012.8
20260501173923 16 215 9.7 12.9 0.00 0.00 0.00 48 1013.2
20260501172922 16 79 6.4 8.0 0.00 0.00 0.00 52 1013.6
20260501171919 16 54 4.8 8.0 0.00 0.00 0.00 54 1013.6
20260501170918 16 306 3.2 4.8 0.00 0.00 0.00 56 1013.6
20260501165913 16 277 3.2 3.2 0.00 0.00 0.00 54 1013.6
20260501164914 15 307 3.2 3.2 0.00 0.00 0.00 55 1013.9
20260501163913 15 258 6.4 8.0 0.00 0.00 0.00 54 1014.2
20260501162911 15 254 3.2 3.2 0.00 0.00 0.00 55 1014.2
20260501161911 15 319 8.0 9.7 0.00 0.00 0.00 53 1014.6
20260501160910 15 274 3.2 3.2 0.00 0.00 0.00 55 1014.2